Location: Frankfurt+(oder)
(51.7984°N, 12.2168°E)
Time: 11:09:07
(UTC+01:00)

ISS - Pass Details

Date: 13 January 2018
Orbit: 402 x 407 km, 51.6° (Epoch: 18 January)

Event Time Altitude Azimuth Distance (km) Brightness Sun altitude
Exits shadow 05:33:54 24° 152° (SSE) 894 -1.8 -23.7°
Drops below altitude 10° 05:35:30 10° 135° (SE) 1,464 -0.4 -23.5°
Sets 05:37:39 0° 128° (SE) 2,322 0.9 -23.1°
